[[{"header":{"parameterUnit":"m.s-1","parameterCategory":2,"la1":30.2992,"la2":30.254,"lo1":-89.0895,"lo2":-89.0443,"dy":0.0025,"dx":0.0025,"nx":19,"ny":19,"refTime":"2026-03-16T21:00:00:Z","depth":"0","parameterNumber":2,"parameterNumberName":"U-component_of_CURRENTS"},"data":[0,0,0,-0.0754,-0.0754,-0.0739,-0.0739,-0.0804,-0.0804,0,0,0,0,0,0,0,0,0,0,0,-0.0799,-0.0799,-0.0755,-0.0754,-0.0739,-0.0739,-0.0804,-0.0804,0,0,0,0,0,0,0,0,0,0,0,-0.0798,-0.0799,-0.08,-0.0754,-0.0739,-0.0739,-0.0804,-0.0797,0,0,0,0,0,0,0,0,0,0,-0.0803,-0.0786,-0.0799,-0.08,-0.0753,-0.0739,-0.0739,-0.0796,-0.0798,-0.083,0,-0.0847,0,-0.0806,-0.0809,-0.081,0,0,0,-0.0768,-0.0785,-0.0812,-0.08,-0.0753,-0.0739,-0.075,-0.0796,-0.0798,-0.0832,-0.0847,-0.0848,-0.0807,-0.081,-0.081,-0.0887,-0.0887,0,0,-0.0769,-0.0762,-0.0811,-0.0814,-0.0776,-0.075,-0.0749,-0.0797,-0.0794,-0.0847,-0.0848,-0.0808,-0.081,-0.0811,-0.0887,-0.0887,0,0,0,-0.0761,-0.0763,-0.0787,-0.0814,-0.0792,-0.0749,-0.0748,-0.0792,-0.081,-0.0848,-0.0809,-0.0811,-0.0812,-0.0886,-0.0887,-0.0856,0,0,0,-0.0763,-0.0757,-0.0788,-0.0779,-0.0791,-0.0767,-0.0742,-0.0808,-0.081,-0.0809,-0.0811,-0.0812,-0.0886,-0.0886,-0.0856,-0.082,0,0,0,-0.0794,-0.0758,-0.0773,-0.0779,-0.0765,-0.0766,-0.0784,-0.0807,-0.0785,-0.081,-0.0813,-0.0886,-0.0886,-0.0856,-0.0822,-0.0811,0,0,0,-0.0766,-0.077,-0.0773,-0.0767,-0.0765,-0.0778,-0.0783,-0.0791,-0.0813,-0.0811,-0.0886,-0.0887,-0.0856,-0.0822,-0.0812,-0.0751,-0.0742,0,0,-0.0752,-0.0768,-0.0767,-0.0769,-0.0794,-0.0779,-0.078,-0.0813,-0.0835,-0.0878,-0.0879,-0.0856,-0.0822,-0.0811,-0.0791,-0.078,0,0,0,-0.0749,-0.0749,-0.0765,-0.077,-0.0795,-0.0796,-0.0805,-0.0816,-0.0848,-0.0846,-0.0879,-0.0858,-0.0852,-0.0818,-0.0811,-0.0809,-0.089,-0.089,-0.089,-0.0682,-0.0714,-0.0717,-0.0761,-0.0776,-0.0803,-0.0814,-0.0828,-0.0857,-0.0869,-0.0851,-0.0843,-0.0808,-0.0801,-0.0801,-0.0883,-0.0883,-0.0883,-0.0883,-0.0637,-0.0635,-0.0669,-0.068,-0.0726,-0.0726,-0.0781,-0.0806,-0.0827,-0.0846,-0.0842,-0.0809,-0.0791,-0.0793,-0.0882,-0.0882,-0.0882,-0.0882,-0.0882,-0.0558,-0.0576,-0.0579,-0.0595,-0.0602,-0.065,-0.0645,-0.0708,-0.0777,-0.0785,-0.0753,-0.0753,-0.0738,-0.0783,-0.0783,-0.0783,-0.0782,-0.0782,-0.0782,-0.0502,-0.052,-0.0492,-0.0507,-0.049,-0.0481,-0.0548,-0.0578,-0.0641,-0.0702,-0.0702,-0.0735,-0.0812,-0.0796,-0.0779,-0.078,-0.078,-0.078,-0.0781,-0.0458,-0.0457,-0.0401,-0.0373,-0.0336,-0.0283,-0.0357,-0.0417,-0.0481,-0.0511,-0.0618,-0.0671,-0.0671,-0.0677,-0.0659,-0.0608,-0.0608,-0.0607,-0.0607,-0.042,-0.0423,-0.0337,-0.0265,-0.0198,-0.019,-0.0135,-0.0231,-0.0415,-0.0493,-0.0548,-0.0562,-0.0569,-0.0564,-0.0573,-0.0555,-0.0478,-0.0478,-0.0478,-0.0406,-0.0373,-0.0282,-0.0211,-0.0142,-0.0071,-0.0004,-0.0084,-0.0355,-0.0476,-0.0557,-0.0562,-0.059,-0.0601,-0.0603,-0.0616,-0.0589,0,0]},{"header":{"parameterUnit":"m.s-1","parameterCategory":2,"la1":30.2992,"la2":30.254,"lo1":-89.0895,"lo2":-89.0443,"dy":0.0025,"dx":0.0025,"nx":19,"ny":19,"refTime":"2026-03-16T21:00:00:Z","depth":"0","parameterNumber":3,"parameterNumberName":"V-component_of_CURRENTS"},"data":[0,0,0,-0.049,-0.0495,-0.0642,-0.0642,-0.055,-0.0549,0,0,0,0,0,0,0,0,0,0,0,-0.0347,-0.0347,-0.0489,-0.0495,-0.0642,-0.0642,-0.055,-0.0549,0,0,0,0,0,0,0,0,0,0,0,-0.0347,-0.0347,-0.0347,-0.0496,-0.0642,-0.0642,-0.055,-0.0495,0,0,0,0,0,0,0,0,0,0,-0.0381,-0.037,-0.0347,-0.0347,-0.0497,-0.0642,-0.0642,-0.0495,-0.0498,-0.0422,0,-0.0423,0,-0.0544,-0.0542,-0.0541,0,0,0,-0.0438,-0.0368,-0.0373,-0.0347,-0.0499,-0.0642,-0.0559,-0.0499,-0.0502,-0.0425,-0.0423,-0.0425,-0.0542,-0.0541,-0.0541,-0.0489,-0.0489,0,0,-0.043,-0.0407,-0.0371,-0.0375,-0.0504,-0.0555,-0.0565,-0.0503,-0.0506,-0.0423,-0.0426,-0.0541,-0.054,-0.054,-0.0489,-0.0489,0,0,0,-0.0445,-0.0401,-0.0413,-0.0373,-0.0457,-0.0561,-0.0572,-0.0508,-0.0502,-0.0427,-0.054,-0.054,-0.0538,-0.0489,-0.0489,-0.0514,0,0,0,-0.0437,-0.0416,-0.0408,-0.0402,-0.0459,-0.0546,-0.0577,-0.0502,-0.0505,-0.054,-0.054,-0.0537,-0.0488,-0.0489,-0.0513,-0.0561,0,0,0,-0.0346,-0.0411,-0.0407,-0.0399,-0.0498,-0.055,-0.0542,-0.0506,-0.0575,-0.0541,-0.0537,-0.0488,-0.0489,-0.0512,-0.0558,-0.0637,0,0,0,-0.0343,-0.0386,-0.0406,-0.049,-0.0497,-0.0563,-0.0544,-0.0575,-0.0546,-0.0539,-0.0488,-0.0489,-0.0511,-0.0556,-0.0635,-0.0714,-0.0734,0,0,-0.0406,-0.0393,-0.0443,-0.0469,-0.048,-0.054,-0.06,-0.0547,-0.0528,-0.0477,-0.0478,-0.0513,-0.0557,-0.0637,-0.0747,-0.0766,0,0,0,-0.0473,-0.0482,-0.0482,-0.0517,-0.0543,-0.0563,-0.0579,-0.0589,-0.0559,-0.0533,-0.0518,-0.0546,-0.0595,-0.0637,-0.0652,-0.0675,-0.0492,-0.0492,-0.0491,-0.0499,-0.0516,-0.0558,-0.055,-0.056,-0.0584,-0.06,-0.0619,-0.0566,-0.0569,-0.0568,-0.0652,-0.0694,-0.0707,-0.0728,-0.055,-0.055,-0.0551,-0.0551,-0.0559,-0.0607,-0.0603,-0.0658,-0.063,-0.067,-0.0662,-0.0642,-0.067,-0.0617,-0.0663,-0.0663,-0.0725,-0.0742,-0.0552,-0.0552,-0.0552,-0.0552,-0.0552,-0.0634,-0.0639,-0.0688,-0.0725,-0.0748,-0.0741,-0.078,-0.075,-0.0732,-0.0745,-0.0823,-0.0823,-0.0842,-0.0773,-0.0774,-0.0774,-0.0775,-0.0775,-0.0776,-0.0633,-0.0661,-0.0739,-0.0768,-0.0814,-0.0841,-0.0862,-0.0893,-0.0936,-0.0896,-0.0897,-0.0884,-0.0722,-0.0717,-0.0784,-0.0783,-0.0782,-0.0781,-0.078,-0.0664,-0.0639,-0.0798,-0.0861,-0.0904,-0.0915,-0.0958,-0.1102,-0.1142,-0.1185,-0.1101,-0.0982,-0.1,-0.0988,-0.099,-0.1125,-0.1125,-0.1125,-0.1125,-0.064,-0.0643,-0.0785,-0.0881,-0.0937,-0.093,-0.1153,-0.1301,-0.1319,-0.1302,-0.1254,-0.1195,-0.118,-0.1204,-0.1187,-0.1192,-0.1374,-0.1374,-0.1374,-0.0589,-0.0681,-0.0791,-0.0895,-0.0907,-0.0984,-0.1264,-0.1541,-0.1482,-0.1382,-0.1274,-0.1264,-0.1168,-0.1143,-0.1165,-0.1139,-0.114,0,0]}],[{"header":{"parameterUnit":"m.s-1","parameterCategory":2,"la1":30.2992,"la2":30.254,"lo1":-89.0895,"lo2":-89.0443,"dy":0.0025,"dx":0.0025,"nx":19,"ny":19,"refTime":"2026-03-16T21:00:00:Z","depth":"2","parameterNumber":2,"parameterNumberName":"U-component_of_CURRENTS"},"data":[0,0,0,-0.0774,-0.0774,-0.0756,-0.0757,-0.0822,-0.0823,0,0,0,0,0,0,0,0,0,0,0,-0.0822,-0.0822,-0.0775,-0.0773,-0.0756,-0.0757,-0.0822,-0.0823,0,0,0,0,0,0,0,0,0,0,0,-0.0822,-0.0822,-0.0823,-0.0773,-0.0756,-0.0757,-0.0822,-0.0817,0,0,0,0,0,0,0,0,0,0,-0.0824,-0.0808,-0.0822,-0.0823,-0.0773,-0.0756,-0.0757,-0.0816,-0.0817,-0.085,0,-0.0867,0,-0.0824,-0.0828,-0.0828,0,0,0,-0.079,-0.0807,-0.0835,-0.0823,-0.0773,-0.0756,-0.0769,-0.0816,-0.0818,-0.0852,-0.0868,-0.0868,-0.0825,-0.0828,-0.0829,-0.0906,-0.0907,0,0,-0.079,-0.0784,-0.0834,-0.0836,-0.0796,-0.0769,-0.0768,-0.0816,-0.0813,-0.0868,-0.0868,-0.0826,-0.0829,-0.0829,-0.0906,-0.0906,0,0,0,-0.0782,-0.0785,-0.0809,-0.0836,-0.0813,-0.0768,-0.0767,-0.0811,-0.0829,-0.0868,-0.0827,-0.0829,-0.083,-0.0906,-0.0906,-0.0885,0,0,0,-0.0784,-0.0779,-0.081,-0.0801,-0.0812,-0.0786,-0.076,-0.0827,-0.0829,-0.0826,-0.0829,-0.0831,-0.0905,-0.0906,-0.0885,-0.0849,0,0,0,-0.0818,-0.0779,-0.0795,-0.0802,-0.0785,-0.0784,-0.0803,-0.0826,-0.0803,-0.0828,-0.0831,-0.0905,-0.0906,-0.0884,-0.085,-0.0832,0,0,0,-0.0789,-0.0792,-0.0795,-0.0787,-0.0786,-0.0802,-0.0802,-0.0813,-0.0838,-0.083,-0.0905,-0.0906,-0.0884,-0.085,-0.0833,-0.0817,-0.0812,0,0,-0.0773,-0.079,-0.0788,-0.0789,-0.0819,-0.0803,-0.0809,-0.0842,-0.0859,-0.0898,-0.0899,-0.0885,-0.085,-0.0832,-0.0859,-0.0852,0,0,0,-0.0769,-0.077,-0.0788,-0.0794,-0.0822,-0.0826,-0.0837,-0.0846,-0.0876,-0.0871,-0.0905,-0.0884,-0.0873,-0.0867,-0.0862,-0.091,-0.0909,-0.0909,-0.0909,-0.0702,-0.0736,-0.0744,-0.0791,-0.0808,-0.084,-0.0854,-0.0866,-0.0892,-0.0903,-0.0883,-0.0874,-0.0869,-0.0865,-0.0917,-0.0916,-0.0916,-0.0916,-0.0916,-0.0659,-0.066,-0.07,-0.0715,-0.0765,-0.0771,-0.0824,-0.0848,-0.0866,-0.0882,-0.0874,-0.0865,-0.0858,-0.0915,-0.0915,-0.0915,-0.0916,-0.0916,-0.0916,-0.0581,-0.0602,-0.0607,-0.063,-0.0646,-0.0695,-0.0691,-0.0752,-0.0818,-0.0828,-0.0815,-0.0815,-0.0833,-0.0819,-0.0819,-0.0819,-0.0818,-0.0818,-0.0818,-0.0524,-0.0547,-0.052,-0.0542,-0.0528,-0.0522,-0.059,-0.0617,-0.0694,-0.0773,-0.0774,-0.084,-0.0844,-0.0828,-0.0815,-0.0815,-0.0816,-0.0816,-0.0816,-0.0479,-0.048,-0.0423,-0.0395,-0.0365,-0.0406,-0.0413,-0.0486,-0.0529,-0.0572,-0.0755,-0.0758,-0.0755,-0.076,-0.0743,-0.0708,-0.0708,-0.0708,-0.0708,-0.0441,-0.0445,-0.0357,-0.0283,-0.0216,-0.0336,-0.0414,-0.063,-0.0767,-0.0881,-0.0875,-0.0921,-0.0919,-0.093,-0.0931,-0.0919,-0.093,-0.0931,-0.0932,-0.0429,-0.0394,-0.0301,-0.0227,-0.0158,-0.0305,-0.0541,-0.0861,-0.0982,-0.095,-0.1014,-0.0703,-0.0753,-0.0758,-0.0761,-0.0767,-0.0743,0,0]},{"header":{"parameterUnit":"m.s-1","parameterCategory":2,"la1":30.2992,"la2":30.254,"lo1":-89.0895,"lo2":-89.0443,"dy":0.0025,"dx":0.0025,"nx":19,"ny":19,"refTime":"2026-03-16T21:00:00:Z","depth":"2","parameterNumber":3,"parameterNumberName":"V-component_of_CURRENTS"},"data":[0,0,0,-0.045,-0.0456,-0.0609,-0.0609,-0.0515,-0.0515,0,0,0,0,0,0,0,0,0,0,0,-0.0299,-0.0299,-0.045,-0.0456,-0.0609,-0.0609,-0.0516,-0.0515,0,0,0,0,0,0,0,0,0,0,0,-0.0298,-0.0299,-0.0299,-0.0457,-0.0609,-0.0609,-0.0516,-0.0457,0,0,0,0,0,0,0,0,0,0,-0.0338,-0.0326,-0.0299,-0.0299,-0.0458,-0.0609,-0.0609,-0.0457,-0.0461,-0.0383,0,-0.0383,0,-0.0511,-0.0507,-0.0507,0,0,0,-0.0394,-0.0323,-0.0328,-0.0299,-0.0461,-0.0609,-0.0523,-0.0461,-0.0465,-0.0386,-0.0384,-0.0386,-0.051,-0.0507,-0.0506,-0.0452,-0.0453,0,0,-0.0386,-0.0363,-0.0326,-0.033,-0.0465,-0.0518,-0.0528,-0.0466,-0.0469,-0.0384,-0.0387,-0.0508,-0.0506,-0.0505,-0.0452,-0.0452,0,0,0,-0.0403,-0.0357,-0.0368,-0.0328,-0.0416,-0.0524,-0.0536,-0.0471,-0.0464,-0.0387,-0.0507,-0.0505,-0.0504,-0.0452,-0.0452,-0.0456,0,0,0,-0.0395,-0.0373,-0.0363,-0.0357,-0.0419,-0.0511,-0.0542,-0.0464,-0.0467,-0.0508,-0.0505,-0.0503,-0.0452,-0.0452,-0.0455,-0.0504,0,0,0,-0.0298,-0.0368,-0.0363,-0.0354,-0.0458,-0.0515,-0.0506,-0.0468,-0.0542,-0.0507,-0.0503,-0.0451,-0.0452,-0.0454,-0.0502,-0.0598,0,0,0,-0.0296,-0.0341,-0.0361,-0.0449,-0.0457,-0.0515,-0.0508,-0.0531,-0.0498,-0.0505,-0.0452,-0.0452,-0.0454,-0.0501,-0.0595,-0.0568,-0.0578,0,0,-0.0364,-0.0349,-0.0401,-0.0427,-0.0425,-0.0491,-0.0541,-0.0487,-0.048,-0.0439,-0.0441,-0.0455,-0.0502,-0.0597,-0.0597,-0.0607,0,0,0,-0.0433,-0.044,-0.0435,-0.0466,-0.0484,-0.0498,-0.0514,-0.0526,-0.0502,-0.0485,-0.0465,-0.0496,-0.0555,-0.0532,-0.054,-0.0455,-0.0455,-0.0454,-0.0454,-0.0459,-0.047,-0.0502,-0.0485,-0.049,-0.0503,-0.0515,-0.054,-0.0494,-0.05,-0.0503,-0.0589,-0.056,-0.0567,-0.0483,-0.0483,-0.0483,-0.0483,-0.0483,-0.0514,-0.0553,-0.0536,-0.0581,-0.054,-0.057,-0.0568,-0.055,-0.0588,-0.0543,-0.0599,-0.0542,-0.0577,-0.0484,-0.0483,-0.0483,-0.0483,-0.0483,-0.0483,-0.0587,-0.0585,-0.0625,-0.0647,-0.0648,-0.0638,-0.0678,-0.0654,-0.0647,-0.0657,-0.0689,-0.0688,-0.0638,-0.0699,-0.07,-0.0701,-0.0701,-0.0702,-0.0702,-0.0586,-0.0603,-0.0677,-0.0689,-0.0727,-0.0748,-0.077,-0.0808,-0.0821,-0.0741,-0.0741,-0.0665,-0.0658,-0.0653,-0.0712,-0.071,-0.0709,-0.0708,-0.0707,-0.0618,-0.0591,-0.0753,-0.0813,-0.0839,-0.0671,-0.0847,-0.0961,-0.1036,-0.1052,-0.0795,-0.0789,-0.0812,-0.0803,-0.0803,-0.0898,-0.0898,-0.0898,-0.0898,-0.0596,-0.0597,-0.0743,-0.0845,-0.09,-0.0647,-0.0627,-0.053,-0.0573,-0.0418,-0.0436,-0.0297,-0.0304,-0.0289,-0.0292,-0.0278,-0.0235,-0.0233,-0.0231,-0.0541,-0.0639,-0.0754,-0.0862,-0.0877,-0.0537,-0.0253,0.0029,0.0063,-0.0184,-0.0108,-0.0895,-0.0741,-0.0731,-0.0747,-0.0737,-0.0731,0,0]}],[{"header":{"parameterUnit":"m.s-1","parameterCategory":2,"la1":30.2992,"la2":30.254,"lo1":-89.0895,"lo2":-89.0443,"dy":0.0025,"dx":0.0025,"nx":19,"ny":19,"refTime":"2026-03-16T21:00:00:Z","depth":"4","parameterNumber":2,"parameterNumberName":"U-component_of_CURRENTS"},"data":[0,0,0,-0.0972,-0.0975,-0.1132,-0.1133,-0.1239,-0.1239,0,0,0,0,0,0,0,0,0,0,0,-0.091,-0.0911,-0.0972,-0.0976,-0.1132,-0.1133,-0.1239,-0.1239,0,0,0,0,0,0,0,0,0,0,0,-0.091,-0.0911,-0.0912,-0.0976,-0.1132,-0.1133,-0.1238,-0.1144,0,0,0,0,0,0,0,0,0,0,-0.1004,-0.0975,-0.091,-0.0912,-0.0977,-0.1132,-0.1133,-0.1141,-0.115,-0.1141,0,-0.1164,0,-0.1206,-0.1244,-0.1244,0,0,0,-0.0977,-0.0967,-0.0995,-0.0912,-0.0979,-0.1131,-0.1062,-0.1147,-0.1157,-0.1152,-0.1166,-0.1171,-0.1207,-0.1245,-0.1245,-0.1311,-0.1311,0,0,-0.0969,-0.0952,-0.0988,-0.1002,-0.1017,-0.1057,-0.1067,-0.1154,-0.1169,-0.1167,-0.1174,-0.1209,-0.1245,-0.1246,-0.131,-0.1311,0,0,0,-0.0943,-0.0946,-0.0975,-0.0996,-0.1034,-0.1061,-0.1073,-0.1166,-0.1172,-0.1176,-0.121,-0.1246,-0.1246,-0.131,-0.1311,-0.1308,0,0,0,-0.0938,-0.0931,-0.097,-0.0964,-0.1032,-0.1119,-0.1082,-0.1166,-0.1177,-0.121,-0.1246,-0.1247,-0.131,-0.131,-0.1308,-0.1294,0,0,0,-0.0903,-0.0928,-0.0942,-0.0962,-0.1029,-0.1119,-0.1132,-0.117,-0.1198,-0.1244,-0.1247,-0.131,-0.131,-0.1307,-0.1294,-0.1308,0,0,0,-0.0886,-0.0902,-0.0942,-0.0983,-0.1027,-0.1097,-0.1132,-0.1198,-0.1238,-0.1246,-0.131,-0.1311,-0.1307,-0.1294,-0.1308,-0.1113,0,0,0,-0.0888,-0.0903,-0.0927,-0.0966,-0.1017,-0.1076,-0.1139,-0.1208,-0.1239,-0.1274,-0.1277,-0.1308,-0.1294,-0.1308,-0.114,0,0,0,0,-0.0916,-0.0931,-0.0956,-0.1005,-0.1059,-0.1113,-0.1185,-0.1218,-0.1281,-0.1266,-0.1317,-0.1308,-0.1318,-0.1204,-0.1313,-0.1313,-0.1312,-0.1312,-0.1312,-0.0871,-0.0916,-0.0954,-0.1011,-0.1058,-0.1142,-0.1191,-0.1247,-0.1276,-0.1305,-0.1314,-0.1331,-0.1211,-0.1329,-0.1329,-0.1329,-0.1329,-0.1329,-0.1329,-0.0862,-0.0879,-0.0948,-0.0998,-0.1052,-0.1105,-0.1197,-0.1238,-0.1306,-0.1319,-0.1329,-0.1217,-0.1329,-0.1329,-0.1329,-0.1329,-0.1329,-0.1329,-0.1329,-0.0816,-0.0827,-0.0879,-0.0946,-0.1002,-0.1082,-0.1124,-0.1216,-0.1291,-0.1316,-0.121,-0.1332,-0.1324,-0.1332,-0.1332,-0.1332,-0.1332,-0.1332,-0.1332,-0.0732,-0.0785,-0.0821,-0.0892,-0.0925,-0.0968,-0.1088,-0.1115,-0.1215,-0.1178,-0.132,-0.1332,-0.1332,-0.1324,-0.1332,-0.1332,-0.1332,-0.1332,-0.1332,-0.0683,-0.0694,-0.0744,-0.078,-0.084,-0.0847,-0.0959,-0.0983,-0.1016,-0.1001,-0.1109,-0.112,-0.1103,-0.1108,-0.1092,-0.1032,-0.1029,-0.1027,0,-0.0618,-0.0638,-0.0681,-0.0723,-0.0723,-0.0782,-0.0739,-0.0781,-0.0891,-0.0885,-0.1037,-0.1162,-0.1168,-0.1151,-0.1152,-0.1133,0,0,0,-0.0587,-0.0604,-0.0613,-0.0669,-0.0677,-0.0669,-0.072,-0.0719,-0.087,-0.0808,-0.0964,-0.0981,-0.1122,-0.1333,-0.1334,-0.1333,-0.1321,0,0]},{"header":{"parameterUnit":"m.s-1","parameterCategory":2,"la1":30.2992,"la2":30.254,"lo1":-89.0895,"lo2":-89.0443,"dy":0.0025,"dx":0.0025,"nx":19,"ny":19,"refTime":"2026-03-16T21:00:00:Z","depth":"4","parameterNumber":3,"parameterNumberName":"V-component_of_CURRENTS"},"data":[0,0,0,0.0779,0.0783,0.0967,0.0968,0.1079,0.108,0,0,0,0,0,0,0,0,0,0,0,0.0679,0.0679,0.0779,0.0784,0.0967,0.0968,0.1079,0.108,0,0,0,0,0,0,0,0,0,0,0,0.0678,0.0679,0.068,0.0784,0.0967,0.0968,0.1079,0.0969,0,0,0,0,0,0,0,0,0,0,0.0806,0.0775,0.0679,0.068,0.0786,0.0967,0.0968,0.0965,0.0976,0.0963,0,0.0974,0,0.1047,0.1085,0.1085,0,0,0,0.0777,0.0767,0.0781,0.068,0.0787,0.0966,0.0882,0.0972,0.0984,0.0976,0.0977,0.0983,0.1049,0.1085,0.1086,0.1137,0.1137,0,0,0.0767,0.075,0.0773,0.0788,0.0811,0.0876,0.0888,0.0981,0.1,0.0977,0.0987,0.105,0.1086,0.1087,0.1137,0.1137,0,0,0,0.0742,0.0743,0.0759,0.0781,0.0834,0.0882,0.0895,0.0997,0.0991,0.0989,0.1052,0.1086,0.1087,0.1137,0.1137,0.1107,0,0,0,0.0736,0.0729,0.0753,0.0751,0.0833,0.0949,0.0909,0.0984,0.0999,0.1051,0.1086,0.1088,0.1137,0.1137,0.1108,0.1087,0,0,0,0.0675,0.0726,0.073,0.0749,0.0833,0.0949,0.0952,0.0989,0.1037,0.1085,0.1088,0.1137,0.1137,0.1108,0.1089,0.1069,0,0,0,0.0673,0.0691,0.073,0.0786,0.0831,0.0907,0.0952,0.1031,0.107,0.1087,0.1137,0.1137,0.1109,0.109,0.107,0.0966,0,0,0,0.069,0.0693,0.0726,0.0765,0.0808,0.0883,0.0952,0.1024,0.1062,0.1097,0.11,0.1107,0.1089,0.1069,0.0964,0,0,0,0,0.0729,0.0731,0.0751,0.0804,0.0862,0.09,0.0993,0.1025,0.1077,0.109,0.1115,0.1104,0.1092,0.1036,0.1137,0.1137,0.1137,0.1137,0.1137,0.068,0.0729,0.0775,0.0813,0.0853,0.0931,0.0962,0.102,0.106,0.1074,0.1085,0.1056,0.0996,0.1096,0.1096,0.1095,0.1095,0.1095,0.1095,0.0705,0.0745,0.0794,0.0856,0.0875,0.093,0.0964,0.099,0.1021,0.1058,0.1048,0.1015,0.1092,0.1093,0.1093,0.1094,0.1094,0.1094,0.1094,0.0702,0.0724,0.0787,0.0872,0.0902,0.0936,0.0951,0.0979,0.0996,0.0989,0.094,0.1033,0.1028,0.0995,0.0994,0.0994,0.0994,0.0994,0.0994,0.0676,0.0732,0.0773,0.0851,0.0897,0.0922,0.0939,0.0921,0.0931,0.0888,0.0987,0.1022,0.1025,0.1023,0.0991,0.0992,0.0992,0.0992,0.0992,0.0667,0.064,0.0753,0.08,0.0877,0.087,0.089,0.0821,0.0785,0.0737,0.0831,0.084,0.0839,0.0846,0.0838,0.075,0.0749,0.0747,0,0.0592,0.06,0.0708,0.0797,0.0825,0.0836,0.0732,0.0706,0.0708,0.0707,0.08,0.0912,0.0916,0.0922,0.0927,0.092,0,0,0,0.0538,0.0601,0.0669,0.0777,0.0811,0.0721,0.0702,0.0669,0.0717,0.0624,0.071,0.072,0.0864,0.0983,0.1003,0.1007,0.1004,0,0]}]]